[[{"header":{"parameterUnit":"m.s-1","parameterCategory":1,"la1":30.2991,"la2":30.254,"lo1":-89.0895,"lo2":-89.0444,"dy":0.0017,"dx":0.0017,"nx":28,"ny":28,"refTime":"2023-11-16T03:00:00:Z","depth":0,"parameterNumber":2,"parameterNumberName":"U-component_of_WINDS"},"data":[0,0,0,0,0,0,0,0,0,0,0,0,0,0,0,0,0,0,0,0,0,0,0,0,0,0,0,0,0,0,0,0,0,0,0,0,0,0,0,0,0,0,0,0,0,0,0,0,0,0,0,0,0,0,0,0,0,0,0.8924,0.8924,0,0.8879,0.8879,0.8878,0.8866,0.8866,0.8866,0.8867,0.8818,0.8817,0.8815,0,0,0,0,0,0,0,0,0,0,0,0,0,0.8998,0.8997,0.8924,0.8924,0.8923,0.8879,0.8879,0.8878,0.8866,0.8866,0.8866,0.8867,0.8819,0.8817,0.8815,0,0,0,0,0,0,0,0,0,0,0,0,0,0.8961,0.8997,0.8925,0.8912,0.891,0.8879,0.8879,0.8878,0.8866,0.8866,0.8867,0.8867,0.8819,0.8817,0.8815,0.8792,0,0,0.8808,0.8807,0,0,0,0,0,0,0,0,0.8963,0.8958,0.8914,0.8913,0.8911,0.8879,0.8887,0.8849,0.8866,0.8883,0.8867,0.8867,0.8838,0.8834,0.8825,0.879,0.8788,0.8807,0.8806,0.8805,0.8804,0,0,0,0,0,0,0,0.8966,0.896,0.8906,0.8914,0.8912,0.8908,0.8903,0.888,0.8858,0.8881,0.888,0.8875,0.8837,0.8827,0.8823,0.8787,0.8808,0.8806,0.8804,0.8803,0.8732,0.8732,0,0,0,0,0,0,0.8971,0.8962,0.8908,0.8905,0.8939,0.8906,0.8901,0.8889,0.8859,0.8855,0.8875,0.8875,0.8831,0.8826,0.8822,0.8793,0.8805,0.8803,0.8802,0.8733,0.8732,0.8732,0,0,0,0,0,0,0.8972,0.8966,0.891,0.8933,0.8926,0.8905,0.8891,0.8887,0.8877,0.8854,0.885,0.8868,0.8831,0.8825,0.88,0.8791,0.8802,0.88,0.8733,0.8733,0.8732,0.8736,0,0,0,0,0,0,0.8974,0.8967,0.8958,0.8933,0.8925,0.8889,0.889,0.8886,0.8874,0.8873,0.8847,0.8843,0.8831,0.8803,0.8798,0.8788,0.8798,0.8734,0.8733,0.8732,0.8737,0.8736,0.8735,0,0,0,0,0,0.8977,0.8961,0.8958,0.8951,0.8914,0.8889,0.8884,0.8871,0.8873,0.8864,0.8849,0.8844,0.8794,0.8801,0.8794,0.8784,0.8734,0.8733,0.8732,0.8737,0.8736,0.8735,0,0,0,0,0,0,0.8984,0.8957,0.8954,0.8929,0.8911,0.8887,0.8875,0.887,0.885,0.8851,0.8834,0.8829,0.8805,0.8792,0.8801,0.8761,0.8764,0.8761,0.877,0.8768,0.8768,0.877,0.8796,0,0,0,0,0,0.8983,0.8966,0.8943,0.8923,0.8915,0.8897,0.8885,0.8877,0.8857,0.8849,0.8833,0.8814,0.8794,0.878,0.8761,0.8735,0.8729,0.8725,0.8724,0.8724,0.8721,0.8706,0.8704,0.8728,0.8728,0.8728,0,0,0.898,0.8963,0.8953,0.8924,0.8909,0.8891,0.889,0.8871,0.8856,0.8846,0.8822,0.8809,0.8786,0.8761,0.8749,0.875,0.8713,0.8722,0.8722,0.872,0.8705,0.8703,0.8701,0.8727,0.8727,0.8727,0,0,0.8965,0.8951,0.8933,0.8919,0.8897,0.8885,0.8881,0.8857,0.8848,0.8824,0.8816,0.8799,0.8764,0.8749,0.8736,0.8717,0.8711,0.8711,0.8705,0.8691,0.8689,0.8687,0.8679,0.8677,0.8709,0.8709,0.8709,0,0.8964,0.8936,0.8924,0.8905,0.8892,0.8884,0.8865,0.8851,0.8824,0.8815,0.8816,0.8774,0.8758,0.8729,0.8724,0.8714,0.8708,0.8713,0.869,0.8688,0.8687,0.8679,0.8676,0.8709,0.8709,0.8709,0.8709,0,0.8936,0.8917,0.8905,0.8879,0.8865,0.8847,0.8831,0.8818,0.8811,0.8799,0.8774,0.8755,0.8731,0.8724,0.8717,0.8694,0.8695,0.8694,0.8696,0.8685,0.8677,0.8674,0.8709,0.8709,0.8709,0.8709,0,0,0.8923,0.8892,0.8887,0.8875,0.8851,0.8836,0.8817,0.8794,0.8783,0.8765,0.8748,0.872,0.8719,0.8705,0.8696,0.8683,0.8668,0.8683,0.8683,0.868,0.8641,0.8641,0.8637,0.8665,0.8664,0.8663,0.8642,0,0.8904,0.887,0.8858,0.883,0.8812,0.8803,0.8787,0.877,0.8758,0.8741,0.8728,0.8708,0.8708,0.87,0.8687,0.8672,0.866,0.8674,0.8647,0.8647,0.8652,0.8634,0.8634,0.8614,0.8639,0.8639,0.8638,0,0.8877,0.8859,0.8829,0.8807,0.8799,0.8784,0.8763,0.8746,0.8727,0.8719,0.8704,0.8696,0.8675,0.868,0.8651,0.8661,0.8649,0.8641,0.864,0.8635,0.8641,0.8628,0.8608,0.8604,0.8634,0.8634,0.8634,0,0.8869,0.8838,0.8815,0.8806,0.878,0.877,0.8758,0.8739,0.8727,0.8708,0.8699,0.8678,0.8666,0.865,0.8636,0.8641,0.8608,0.8611,0.86,0.86,0.8592,0.8592,0.8569,0.8587,0.8587,0.8587,0.8587,0,0.8849,0.883,0.8812,0.8798,0.8777,0.8764,0.8743,0.8732,0.8715,0.8698,0.869,0.8674,0.8658,0.864,0.8629,0.8606,0.8601,0.8594,0.8591,0.8594,0.8594,0.8585,0.8585,0.8586,0.8586,0.8587,0.8587,0,0.8836,0.8823,0.8798,0.8776,0.877,0.8755,0.8736,0.8722,0.8711,0.869,0.8684,0.8666,0.8644,0.863,0.8602,0.8595,0.8569,0.8567,0.8576,0.8574,0.8563,0.8564,0.8531,0.8526,0.8549,0.8549,0.8549,0,0.8823,0.8809,0.8786,0.8774,0.8763,0.8745,0.8732,0.8719,0.8706,0.8683,0.8672,0.865,0.8632,0.8598,0.8581,0.856,0.8557,0.8547,0.8553,0.8557,0.8555,0.8556,0.8554,0.8545,0.8545,0.8545,0.8545,0,0.8801,0.8796,0.8778,0.8758,0.8743,0.8727,0.871,0.8701,0.8685,0.8671,0.8649,0.8635,0.8607,0.8585,0.8563,0.855,0.8545,0.8543,0.8539,0.8541,0.8546,0.8542,0.8572,0.8544,0.8544,0.8544,0.8544,0.8544,0.8787,0.8774,0.8756,0.8736,0.8723,0.8707,0.8693,0.8681,0.8662,0.8639,0.8633,0.861,0.8591,0.856,0.8548,0.8529,0.853,0.8524,0.8523,0.8521,0.8521,0.8551,0.8525,0.8525,0.8525,0.8525,0.8525,0,0.8764,0.8752,0.8735,0.8712,0.8696,0.8694,0.8675,0.8662,0.8643,0.8626,0.8608,0.8583,0.8562,0.8545,0.8523,0.8512,0.8508,0.8506,0.8506,0.8503,0.8522,0.8527,0.8509,0.8509,0.8509,0.8509,0.8509,0.8509,0.875,0.8727,0.872,0.869,0.8678,0.8657,0.8646,0.8632,0.8618,0.8591,0.8574,0.8563,0.8546,0.8523,0.8503,0.8499,0.849,0.8488,0.8483,0.85,0.8502,0.8504,0.8508,0.8487,0.8487,0.8466,0.8466,0.8466]},{"header":{"parameterUnit":"m.s-1","parameterCategory":1,"la1":30.2991,"la2":30.254,"lo1":-89.0895,"lo2":-89.0444,"dy":0.0017,"dx":0.0017,"nx":28,"ny":28,"refTime":"2023-11-16T03:00:00:Z","depth":0,"parameterNumber":3,"parameterNumberName":"V-component_of_WINDS"},"data":[0,0,0,0,0,0,0,0,0,0,0,0,0,0,0,0,0,0,0,0,0,0,0,0,0,0,0,0,0,0,0,0,0,0,0,0,0,0,0,0,0,0,0,0,0,0,0,0,0,0,0,0,0,0,0,0,0,0,-2.6388,-2.6388,0,-2.6403,-2.6404,-2.6404,-2.6364,-2.6363,-2.6361,-2.636,-2.6374,-2.6375,-2.6377,0,0,0,0,0,0,0,0,0,0,0,0,0,-2.6322,-2.6324,-2.6388,-2.6388,-2.6388,-2.6403,-2.6404,-2.6404,-2.6364,-2.6363,-2.6361,-2.636,-2.6373,-2.6375,-2.6377,0,0,0,0,0,0,0,0,0,0,0,0,0,-2.6346,-2.6324,-2.6388,-2.637,-2.6369,-2.6403,-2.6404,-2.6404,-2.6364,-2.6363,-2.6361,-2.6359,-2.6373,-2.6375,-2.6377,-2.6429,0,0,-2.6384,-2.6385,0,0,0,0,0,0,0,0,-2.6344,-2.6348,-2.6373,-2.6371,-2.637,-2.638,-2.6385,-2.6412,-2.6365,-2.6366,-2.636,-2.6358,-2.6377,-2.6379,-2.6386,-2.6429,-2.643,-2.6384,-2.6386,-2.6387,-2.6387,0,0,0,0,0,0,0,-2.6343,-2.6347,-2.6394,-2.6373,-2.6371,-2.6361,-2.6362,-2.639,-2.6382,-2.6366,-2.6363,-2.6365,-2.6376,-2.6384,-2.6386,-2.643,-2.6384,-2.6386,-2.6388,-2.6389,-2.6518,-2.652,0,0,0,0,0,0,-2.6344,-2.6346,-2.6393,-2.6394,-2.6352,-2.6364,-2.6365,-2.6379,-2.6381,-2.638,-2.6367,-2.6364,-2.6381,-2.6383,-2.6386,-2.6448,-2.6387,-2.6389,-2.639,-2.6516,-2.6519,-2.6521,0,0,0,0,0,0,-2.6342,-2.6348,-2.6393,-2.6369,-2.6374,-2.6367,-2.6382,-2.638,-2.6388,-2.6382,-2.638,-2.6377,-2.6379,-2.6383,-2.6419,-2.6448,-2.639,-2.6392,-2.6514,-2.6517,-2.652,-2.6572,0,0,0,0,0,0,-2.6341,-2.6348,-2.6368,-2.637,-2.6376,-2.6426,-2.6384,-2.6381,-2.6392,-2.6387,-2.6391,-2.639,-2.6378,-2.6416,-2.6421,-2.645,-2.6394,-2.6511,-2.6515,-2.6519,-2.6567,-2.6576,-2.6584,0,0,0,0,0,-2.6338,-2.638,-2.6369,-2.6375,-2.64,-2.6427,-2.643,-2.6417,-2.6394,-2.6414,-2.6411,-2.639,-2.6444,-2.642,-2.6426,-2.6456,-2.6509,-2.6514,-2.6519,-2.6564,-2.6575,-2.6584,0,0,0,0,0,0,-2.638,-2.638,-2.6367,-2.6412,-2.642,-2.6421,-2.6445,-2.6429,-2.6443,-2.6438,-2.642,-2.6422,-2.6461,-2.6462,-2.6435,-2.6507,-2.6473,-2.6479,-2.6505,-2.6515,-2.6523,-2.6523,-2.6396,0,0,0,0,0,-2.6394,-2.6417,-2.6416,-2.6455,-2.646,-2.6452,-2.6463,-2.6453,-2.646,-2.6463,-2.6463,-2.647,-2.6489,-2.6502,-2.6519,-2.6567,-2.6568,-2.6591,-2.6599,-2.6606,-2.6611,-2.6639,-2.6649,-2.6536,-2.6536,-2.6536,0,0,-2.6424,-2.6427,-2.6442,-2.6464,-2.6469,-2.6493,-2.6455,-2.6481,-2.6499,-2.6467,-2.6502,-2.6502,-2.6509,-2.6552,-2.6571,-2.6554,-2.6643,-2.6612,-2.6617,-2.6619,-2.6645,-2.6655,-2.6665,-2.654,-2.6539,-2.6538,0,0,-2.6491,-2.6495,-2.653,-2.6536,-2.6545,-2.654,-2.6548,-2.6552,-2.6551,-2.6586,-2.6563,-2.6583,-2.6616,-2.6623,-2.663,-2.6702,-2.6683,-2.6708,-2.6751,-2.6778,-2.6787,-2.6795,-2.6822,-2.6832,-2.6713,-2.6714,-2.6714,0,-2.6527,-2.6563,-2.6549,-2.6578,-2.6588,-2.6562,-2.6597,-2.6603,-2.6617,-2.6625,-2.6605,-2.6647,-2.665,-2.6695,-2.6713,-2.672,-2.6729,-2.6708,-2.6787,-2.6795,-2.6802,-2.6828,-2.6838,-2.6717,-2.6716,-2.6716,-2.6716,0,-2.6607,-2.6632,-2.6659,-2.6675,-2.6688,-2.672,-2.6711,-2.6726,-2.6714,-2.6711,-2.6748,-2.675,-2.6769,-2.6778,-2.6766,-2.6822,-2.6812,-2.679,-2.6756,-2.6816,-2.684,-2.6849,-2.6721,-2.672,-2.6719,-2.6718,0,0,-2.67,-2.671,-2.672,-2.6728,-2.6736,-2.6755,-2.6786,-2.6805,-2.6819,-2.683,-2.6856,-2.6885,-2.6866,-2.6874,-2.6863,-2.6887,-2.6946,-2.6862,-2.6862,-2.6879,-2.7009,-2.7027,-2.7038,-2.6933,-2.6935,-2.6936,-2.7009,0,-2.6767,-2.6822,-2.6811,-2.6864,-2.6888,-2.6864,-2.6891,-2.6899,-2.6898,-2.6917,-2.6914,-2.6936,-2.6908,-2.6914,-2.6936,-2.6934,-2.6972,-2.6928,-2.6958,-2.6959,-2.6958,-2.7051,-2.7069,-2.7137,-2.7018,-2.702,-2.7021,0,-2.6853,-2.687,-2.6926,-2.6933,-2.6943,-2.6967,-2.6985,-2.7004,-2.7013,-2.701,-2.7021,-2.7006,-2.7037,-2.7002,-2.7045,-2.7016,-2.7027,-2.7028,-2.703,-2.7033,-2.6995,-2.7058,-2.7159,-2.717,-2.7035,-2.7034,-2.7033,0,-2.6918,-2.6953,-2.6992,-2.6999,-2.7008,-2.7026,-2.7031,-2.7038,-2.7051,-2.7066,-2.7074,-2.7092,-2.7102,-2.7116,-2.7107,-2.7082,-2.7152,-2.7115,-2.7151,-2.7151,-2.7167,-2.7167,-2.7273,-2.7172,-2.7172,-2.7172,-2.7172,0,-2.6995,-2.7031,-2.7022,-2.7045,-2.7085,-2.7072,-2.7112,-2.7113,-2.712,-2.7144,-2.7123,-2.7146,-2.7131,-2.7153,-2.7145,-2.7183,-2.7187,-2.7185,-2.7183,-2.7188,-2.7189,-2.7196,-2.7192,-2.7175,-2.7174,-2.7174,-2.7173,0,-2.7074,-2.7069,-2.711,-2.7116,-2.7118,-2.7147,-2.7152,-2.7175,-2.7172,-2.7202,-2.7208,-2.7204,-2.7228,-2.722,-2.7245,-2.724,-2.7289,-2.7279,-2.7286,-2.7284,-2.7321,-2.7318,-2.7437,-2.7453,-2.734,-2.7342,-2.7342,0,-2.7124,-2.7152,-2.7161,-2.7177,-2.7183,-2.7207,-2.7221,-2.721,-2.7225,-2.7239,-2.726,-2.7283,-2.73,-2.7341,-2.7339,-2.7359,-2.7351,-2.7391,-2.7354,-2.7359,-2.7354,-2.7353,-2.7356,-2.7399,-2.74,-2.7401,-2.7402,0,-2.7215,-2.7212,-2.7233,-2.7254,-2.7272,-2.7287,-2.73,-2.7314,-2.7303,-2.7321,-2.7347,-2.7361,-2.7389,-2.7412,-2.743,-2.7434,-2.7417,-2.7414,-2.7424,-2.743,-2.7433,-2.7434,-2.7308,-2.7411,-2.7411,-2.741,-2.7409,-2.7409,-2.7282,-2.7306,-2.7318,-2.7342,-2.7352,-2.7366,-2.7388,-2.7389,-2.741,-2.7433,-2.7424,-2.7454,-2.7464,-2.7487,-2.7494,-2.7517,-2.7501,-2.7514,-2.7518,-2.7522,-2.7528,-2.7429,-2.752,-2.7519,-2.7519,-2.7519,-2.7519,0,-2.7373,-2.738,-2.7403,-2.7424,-2.7444,-2.7427,-2.7441,-2.7459,-2.7486,-2.7497,-2.7516,-2.7546,-2.7569,-2.757,-2.7592,-2.761,-2.7603,-2.7616,-2.7616,-2.7617,-2.7539,-2.753,-2.7622,-2.7622,-2.7622,-2.7622,-2.7622,-2.7622,-2.7423,-2.7464,-2.7462,-2.7507,-2.7513,-2.7544,-2.7554,-2.7567,-2.7576,-2.7611,-2.7631,-2.7632,-2.7639,-2.7662,-2.7682,-2.7682,-2.7691,-2.7708,-2.7705,-2.7633,-2.7622,-2.7613,-2.7604,-2.771,-2.771,-2.7781,-2.7782,-2.7782]}]]